Regional Weather Roundup
Issued by NWS

Home | Current Version | Previous Version | Text Only | Print | Product List | Glossary Off
Versions: 1 2 3 4 5 6 7 8 9 10 11 12 13 14 15 16 17 18 19 20 21 22 23 24 25 26 27 28 29 30 31 32 33 34 35 36 37 38 39 40 41 42 43 44 45 46 47 48 49 50

000
ASUS43 KDTX 291801
RWRMI
MICHIGAN HOURLY REGIONAL WEATHER ROUNDUP
NATIONAL WEATHER SERVICE DETROIT/PONTIAC MI
200 PM EDT WED JUL 29 2015

NOTE: "FAIR" INDICATES FEW OR NO CLOUDS BELOW 12,000 FEET WITH NO
SIGNIFICANT WEATHER AND/OR OBSTRUCTION TO VISIBILITY.

MIZ047>049-052>055-059>063-066>070-074>076-081>083-291900-
SOUTHEAST LOWER MICHIGAN

CITY           SKY/WX    TMP DP  RH WIND       PRES   REMARKS
ADRIAN         PTSUNNY   90  73  57 SW10      29.92F HX  98
6HR MIN TEMP:  70; 6HR MAX TEMP:  90;

ALMA           CLOUDY    83  75  76 W12       29.89F HX  91
ANN ARBOR      PTSUNNY   86  74  67 SW9       29.91F HX  94
BAD AXE        MOSUNNY   86  72  62 SW8       29.88F HX  92
6HR MIN TEMP:  69; 6HR MAX TEMP:  86;

CARO           MOSUNNY   90  74  58 SW12      29.87F HX  99
DETROIT CITY   PTSUNNY   88  70  55 SW9       29.91F HX  93
6HR MIN TEMP:  74; 6HR MAX TEMP:  89;

DETROIT        CLOUDY    90  72  55 S9G17     29.92F HX  97
6HR MIN TEMP:  74; 6HR MAX TEMP:  91;

FLINT          CLOUDY    88  73  61 S9        29.89F HX  95
6HR MIN TEMP:  73; 6HR MAX TEMP:  90;

GROSSE ILE     PTSUNNY   84  75  74 SE8       29.91F HX  92
HILLSDALE      PTSUNNY   88  74  65 SW13      29.94F HX  96
6HR MIN TEMP:  73; 6HR MAX TEMP:  89;

HOWELL         PTSUNNY   88  72  58 SW10      29.91F HX  94
6HR MIN TEMP:  72; 6HR MAX TEMP:  89;


CITY           SKY/WX    TMP DP  RH WIND       PRES   REMARKS
JACKSON        PTSUNNY   84  73  69 W14       29.93F HX  90
6HR MIN TEMP:  74; 6HR MAX TEMP:  88; 6HR PCP: TRACE;

LAMBERTVILLE   PTSUNNY   90  73  57 SW5       29.93F HX  97
6HR MIN TEMP:  72; 6HR MAX TEMP:  90;

LANSING        PTSUNNY   82  75  79 W12       29.92F
6HR MIN TEMP:  74; 6HR MAX TEMP:  86; 6HR PCP: TRACE;

LAPEER         FAIR      90  70  51 SW10      29.90F HX  95
MASON          PTSUNNY   83  72  70 W12       29.92F
MONROE         PTSUNNY   87  75  66 SW7       29.91F HX  96
MT. CLEMENS    PTSUNNY   88  73  60 S12       29.89F HX  95
6HR MIN TEMP:  72; 6HR MAX TEMP:  88;

PONTIAC        PTSUNNY   88  70  55 SW8       29.91F HX  93
6HR MIN TEMP:  72; 6HR MAX TEMP:  89;

PORT HOPE        N/A     87  72  60 S7        29.85F HX  93
6HR MIN TEMP:  72; 6HR MAX TEMP:  88;

PORT HURON     MOSUNNY   86  72  62 SW8       29.91F HX  92
TRI CITIES     LGT RAIN  85  74  69 SW13      29.86F HX  92
6HR MIN TEMP:  75; 6HR MAX TEMP:  88; 6HR PCP: TRACE;

MIDLAND        LGT RAIN  82  74  78 SW6       29.86
TROY           PTSUNNY   92  69  46 S7        29.92F HX  96
SAGINAW HB     PTSUNNY   88  73  62 SW12G17   29.85F HX  96
$$
MIZ043>046-050>051-056>058-064>065-071>073-077>080-291900-
SOUTHWEST LOWER MICHIGAN

CITY           SKY/WX    TMP DP  RH WIND       PRES   REMARKS
BATTLE CREEK   CLOUDY    84  74  71 W9        29.96R HX  91
6HR MIN TEMP:  74; 6HR MAX TEMP:  85;

BENTON HARBOR  PTSUNNY   81  71  71 NW9G18    29.98R
6HR MIN TEMP:  77; 6HR MAX TEMP:  81;

BIG RAPIDS     CLOUDY    80  61  52 MISG      29.91S
6HR MIN TEMP:  70; 6HR MAX TEMP:  82;

COLDWATER      CLOUDY    84  72  68 W10G16    29.95S
6HR MIN TEMP:  72; 6HR MAX TEMP:  86;

FREMONT        FAIR      81  59  47 W15       29.93R
HOLLAND        PTSUNNY   83  67  58 W9        29.96R
6HR MIN TEMP:  75; 6HR MAX TEMP:  84;

GRAND RAPIDS   CLOUDY    82  72  71 W7        29.93F
6HR MIN TEMP:  75; 6HR MAX TEMP:  83;

IONIA          PTSUNNY   83  72  69 W13       29.91F
KALAMAZOO      CLOUDY    82  71  69 NW10      29.96R
6HR MIN TEMP:  75; 6HR MAX TEMP:  85;

LUDINGTON      MOSUNNY   81  62  51 W9        29.92S
6HR MIN TEMP:  76; 6HR MAX TEMP:  81;

MARSHALL       CLOUDY    83  74  72 W8        29.94S HX  90
MOUNT PLEASANT CLOUDY    87  73  61 W8G18     29.87F HX  95
6HR MIN TEMP:  72; 6HR MAX TEMP:  90; 6HR PCP:  0.03;

MUSKEGON       PTSUNNY   81  66  60 W12       29.94R
6HR MIN TEMP:  76; 6HR MAX TEMP:  86; 6HR PCP: TRACE;

SOUTH HAVEN    PTSUNNY   80  70  70 NW9       29.97S
$$
MIZ016>042-291900-
NORTHERN LOWER MICHIGAN

CITY           SKY/WX    TMP DP  RH WIND       PRES   REMARKS
ALPENA         PTSUNNY   87  69  54 S12       29.82F HX  91
6HR MIN TEMP:  76; 6HR MAX TEMP:  89;

BEAVER ISLAND  SUNNY     79  56  45 SW21G26   29.80F
6HR MIN TEMP:  74; 6HR MAX TEMP:  79;

BELLAIRE       PTSUNNY   82  53  36 SW8       29.85F
6HR MIN TEMP:  76; 6HR MAX TEMP:  82;

CADILLAC       CLOUDY    82  63  52 SW10G17   29.91S
CHARLEVOIX     MOSUNNY   82  54  38 SW20G29   29.86F
FRANKFORT      SUNNY     79  61  53 W12G17    29.88S
GAYLORD        PTSUNNY   81  58  45 W17G23    29.87S
6HR MIN TEMP:  74; 6HR MAX TEMP:  83;

GRAYLING       CLOUDY    80  64  59 SW7G16    29.88F
6HR MIN TEMP:  73; 6HR MAX TEMP:  82;

HARBOR SPRINGS PTSUNNY   80  60  50 W10G18    29.83S
HOUGHTON LAKE  CLOUDY    82  72  71 W12       29.88F
6HR MIN TEMP:  73; 6HR MAX TEMP:  83;

MANISTEE       MOSUNNY   81  55  41 SW14G21   29.90S
OSCODA         CLOUDY    83  70  64 SE8       29.84F
PELLSTON       PTSUNNY   82  53  36 W17G26    29.83F
6HR MIN TEMP:  75; 6HR MAX TEMP:  83;

ROGERS CITY    PTSUNNY   84  74  71 W6        29.81F HX  91
TRAVERSE CITY  MOSUNNY   86  56  35 SW9G17    29.84F
6HR MIN TEMP:  76; 6HR MAX TEMP:  86;

$$
MIZ007>008-015-291900-
EASTERN UPPER MICHIGAN

CITY           SKY/WX    TMP DP  RH WIND       PRES   REMARKS
KINROSS        FAIR      82  61  47 SW9G18    29.77F
6HR MIN TEMP:  73; 6HR MAX TEMP:  82;

MACKINAC ISLAN PTSUNNY   78  60  53 SW16G23   29.80F
MUNISING         N/A     86  53  32 SW13G20   29.72S
6HR MIN TEMP:  74; 6HR MAX TEMP:  86;

$$
MIZ004>006-011>014-085-291900-
CENTRAL UPPER MICHIGAN

CITY           SKY/WX    TMP DP  RH WIND       PRES   REMARKS
ESCANABA       SUNNY     84  50  30 W16G30    29.75S
6HR MIN TEMP:  73; 6HR MAX TEMP:  84;

MENOMINEE      SUNNY     81  52  36 W13G22    29.80F
6HR MIN TEMP:  73; 6HR MAX TEMP:  81;

SAWYER-GWINN   SUNNY     81  48  32 W21G28    29.76R
$$
MIZ001>003-009>011-084-291900-
WESTERN UPPER MICHIGAN

CITY           SKY/WX    TMP DP  RH WIND       PRES   REMARKS
IRON MOUNTAIN  SUNNY     81  51  35 SW15G29   29.78F
6HR MIN TEMP:  71; 6HR MAX TEMP:  81;

HOUGHTON       CLOUDY    72  52  49 W28G39    29.72S
6HR MIN TEMP:  69; 6HR MAX TEMP:  74;

IRONWOOD       CLOUDY    72  54  53 W28G36    29.76F
6HR MIN TEMP:  66; 6HR MAX TEMP:  72;

$$

ABBREVIATIONS USED IN REMARKS
   TC - TEMPERATURE IN CELSIUS
  WCI - WIND CHILL INDEX
   HX - HEAT INDEX
  VSB - VISIBILITY



USA.gov is the U.S. government's official web portal to all federal, state and local government web resources and services.